When you browse on this site, cookies collect data to enhance your experience and personalize the content and advertising you see.
Visit our Privacy Policy to learn more. By continuing to use the site, you agree to this use of cookies and data.
  • In Hungary
  • List of Countries
  • For 7 days
  • Water Temperature
  • Weather Map
  • News
  • Weather Widgets
  • user-avatar
    Login

    Hourly Weather Sorrento

    Today, 15 November, Friday

    Time Temperature Precipitation Wind Pressure Humidity
    00:00 +14°C° 0 mm 5 mps 750 mmHg 70%
    01:00 +14°C° 0 mm 5 mps 750 mmHg 71%
    02:00 +14°C° 0.1 mm 5 mps 750 mmHg 71%
    03:00 +15°C° 0.1 mm 5 mps 750 mmHg 70%
    04:00 +15°C° 0.1 mm 5 mps 750 mmHg 70%
    05:00 +15°C° 0.2 mm 5 mps 750 mmHg 72%
    06:00 +15°C° 0.2 mm 5 mps 750 mmHg 74%
    07:00 +15°C° 0.2 mm 5 mps 750 mmHg 76%
    08:00 +16°C° 0.1 mm 6 mps 750 mmHg 76%
    09:00 +16°C° 0.1 mm 6 mps 750 mmHg 75%
    10:00 +17°C° 0.1 mm 7 mps 750 mmHg 74%
    11:00 +17°C° 0.1 mm 8 mps 750 mmHg 72%
    12:00 +18°C° 0.1 mm 8 mps 750 mmHg 70%
    13:00 +18°C° 0.1 mm 9 mps 749 mmHg 68%
    14:00 +18°C° 0 mm 9 mps 749 mmHg 69%
    15:00 +18°C° 0 mm 9 mps 749 mmHg 69%
    16:00 +18°C° 0 mm 9 mps 749 mmHg 69%
    17:00 +18°C° 0.2 mm 9 mps 749 mmHg 71%
    18:00 +18°C° 0.2 mm 9 mps 749 mmHg 74%
    19:00 +17°C° 0.2 mm 9 mps 750 mmHg 76%
    20:00 +17°C° 0.5 mm 9 mps 750 mmHg 77%
    21:00 +17°C° 0.5 mm 9 mps 750 mmHg 78%
    22:00 +17°C° 0.5 mm 9 mps 751 mmHg 79%
    23:00 +17°C° 0.6 mm 9 mps 751 mmHg 79%

    Tomorrow, 16 November, Saturday

    Time Temperature Precipitation Wind Pressure Humidity
    00:00 +17°C° 0.6 mm 8 mps 751 mmHg 80%
    01:00 +17°C° 0.6 mm 8 mps 751 mmHg 80%
    02:00 +17°C° 0.8 mm 8 mps 751 mmHg 79%
    03:00 +17°C° 0.8 mm 8 mps 752 mmHg 79%
    04:00 +17°C° 0.8 mm 8 mps 752 mmHg 78%
    05:00 +17°C° 0.5 mm 8 mps 752 mmHg 79%
    06:00 +17°C° 0.5 mm 7 mps 752 mmHg 79%
    07:00 +16°C° 0.5 mm 6 mps 752 mmHg 79%
    08:00 +17°C° 0.3 mm 7 mps 752 mmHg 73%
    09:00 +18°C° 0.3 mm 7 mps 752 mmHg 67%
    10:00 +20°C° 0.3 mm 8 mps 752 mmHg 61%
    11:00 +20°C° 0.4 mm 8 mps 752 mmHg 58%
    12:00 +21°C° 0.4 mm 9 mps 751 mmHg 55%
    13:00 +21°C° 0.4 mm 9 mps 751 mmHg 52%
    14:00 +21°C° 0.1 mm 10 mps 750 mmHg 53%
    15:00 +21°C° 0.1 mm 10 mps 750 mmHg 54%
    16:00 +21°C° 0.1 mm 10 mps 749 mmHg 55%
    17:00 +19°C° 0 mm 10 mps 749 mmHg 56%
    18:00 +19°C° 0 mm 10 mps 749 mmHg 57%
    19:00 +18°C° 0 mm 10 mps 749 mmHg 57%
    20:00 +18°C° 0 mm 10 mps 749 mmHg 58%
    21:00 +17°C° 0 mm 11 mps 748 mmHg 58%
    22:00 +17°C° 0 mm 11 mps 748 mmHg 59%
    23:00 +17°C° 0 mm 11 mps 748 mmHg 60%

    Day after tomorrow, 17 November, Sunday

    Time Temperature Precipitation Wind Pressure Humidity
    00:00 +17°C° 0 mm 12 mps 748 mmHg 61%
    01:00 +17°C° 0 mm 12 mps 747 mmHg 61%
    02:00 +17°C° 0.1 mm 12 mps 747 mmHg 63%
    03:00 +17°C° 0.1 mm 12 mps 747 mmHg 65%
    04:00 +17°C° 0.1 mm 13 mps 746 mmHg 66%
    05:00 +17°C° 1.1 mm 13 mps 746 mmHg 68%
    06:00 +17°C° 1.1 mm 13 mps 746 mmHg 71%
    07:00 +17°C° 1.1 mm 14 mps 746 mmHg 73%
    08:00 +17°C° 3.8 mm 14 mps 746 mmHg 70%
    09:00 +17°C° 3.8 mm 15 mps 746 mmHg 67%
    10:00 +17°C° 3.8 mm 15 mps 746 mmHg 64%
    11:00 +15°C° 0.1 mm 14 mps 747 mmHg 66%
    12:00 +15°C° 0.1 mm 13 mps 747 mmHg 68%
    13:00 +15°C° 0.1 mm 12 mps 748 mmHg 69%
    14:00 +14°C° 0.4 mm 11 mps 749 mmHg 70%
    15:00 +14°C° 0.4 mm 10 mps 749 mmHg 70%
    16:00 +13°C° 0.4 mm 9 mps 750 mmHg 71%
    17:00 +13°C° 0.3 mm 8 mps 750 mmHg 69%
    18:00 +14°C° 0.3 mm 6 mps 751 mmHg 67%
    19:00 +14°C° 0.3 mm 5 mps 751 mmHg 65%
    20:00 +14°C° 0.2 mm 5 mps 752 mmHg 66%
    21:00 +13°C° 0.2 mm 5 mps 752 mmHg 68%
    22:00 +13°C° 0.2 mm 5 mps 753 mmHg 69%
    23:00 +13°C° 0.4 mm 5 mps 753 mmHg 71%

    18 November, Monday

    Time Temperature Precipitation Wind Pressure Humidity
    00:00 +13°C° 0.4 mm 6 mps 753 mmHg 73%
    01:00 +13°C° 0.4 mm 6 mps 753 mmHg 74%
    02:00 +13°C° 0.3 mm 5 mps 753 mmHg 74%
    03:00 +13°C° 0.3 mm 5 mps 754 mmHg 74%
    04:00 +13°C° 0.3 mm 5 mps 754 mmHg 74%
    05:00 +13°C° 0.2 mm 5 mps 754 mmHg 74%
    06:00 +13°C° 0.2 mm 5 mps 754 mmHg 73%
    07:00 +13°C° 0.2 mm 5 mps 755 mmHg 72%
    08:00 +14°C° 0.6 mm 5 mps 755 mmHg 70%
    09:00 +14°C° 0.6 mm 5 mps 755 mmHg 68%
    10:00 +15°C° 0.6 mm 5 mps 755 mmHg 66%
    11:00 +15°C° 0.6 mm 5 mps 755 mmHg 66%
    12:00 +16°C° 0.6 mm 6 mps 755 mmHg 66%
    13:00 +16°C° 0.6 mm 6 mps 755 mmHg 65%
    14:00 +16°C° 0.2 mm 6 mps 755 mmHg 64%
    15:00 +16°C° 0.2 mm 5 mps 755 mmHg 63%
    16:00 +16°C° 0.2 mm 5 mps 755 mmHg 62%
    17:00 +15°C° 0 mm 5 mps 755 mmHg 64%
    18:00 +15°C° 0 mm 5 mps 755 mmHg 66%
    19:00 +15°C° 0 mm 6 mps 755 mmHg 67%
    20:00 +14°C° 0.2 mm 6 mps 755 mmHg 69%
    21:00 +14°C° 0.2 mm 7 mps 755 mmHg 70%
    22:00 +14°C° 0.2 mm 7 mps 754 mmHg 71%
    23:00 +14°C° 0.8 mm 7 mps 754 mmHg 73%

    19 November, Tuesday

    Time Temperature Precipitation Wind Pressure Humidity
    00:00 +14°C° 0.8 mm 7 mps 754 mmHg 75%
    01:00 +14°C° 0.8 mm 7 mps 754 mmHg 77%
    02:00 +14°C° 1.5 mm 7 mps 754 mmHg 79%
    03:00 +14°C° 1.5 mm 7 mps 753 mmHg 81%
    04:00 +14°C° 1.5 mm 7 mps 753 mmHg 84%
    05:00 +14°C° 1 mm 7 mps 753 mmHg 83%
    06:00 +14°C° 1 mm 7 mps 753 mmHg 82%
    07:00 +12°C° 1 mm 7 mps 753 mmHg 81%
    08:00 +12°C° 2.7 mm 7 mps 753 mmHg 82%
    09:00 +12°C° 2.7 mm 7 mps 753 mmHg 83%
    10:00 +12°C° 2.7 mm 7 mps 753 mmHg 84%
    11:00 +12°C° 3.6 mm 7 mps 753 mmHg 85%
    12:00 +12°C° 3.6 mm 8 mps 753 mmHg 85%
    13:00 +13°C° 3.6 mm 8 mps 753 mmHg 86%
    14:00 +13°C° 0.9 mm 8 mps 752 mmHg 83%
    15:00 +14°C° 0.9 mm 7 mps 752 mmHg 81%
    16:00 +14°C° 0.9 mm 7 mps 752 mmHg 78%
    17:00 +14°C° 1 mm 6 mps 753 mmHg 79%
    18:00 +14°C° 1 mm 6 mps 753 mmHg 81%
    19:00 +14°C° 1 mm 5 mps 753 mmHg 82%
    20:00 +14°C° 0.5 mm 5 mps 753 mmHg 83%
    21:00 +14°C° 0.5 mm 5 mps 754 mmHg 83%
    22:00 +13°C° 0.5 mm 5 mps 754 mmHg 84%
    23:00 +13°C° 0 mm 6 mps 754 mmHg 83%

    20 November, Wednesday

    Time Temperature Precipitation Wind Pressure Humidity
    00:00 +13°C° 0 mm 6 mps 755 mmHg 83%
    01:00 +13°C° 0 mm 6 mps 755 mmHg 82%
    02:00 +13°C° 0 mm 6 mps 755 mmHg 79%
    03:00 +13°C° 0 mm 5 mps 755 mmHg 76%
    04:00 +12°C° 0 mm 5 mps 755 mmHg 73%
    05:00 +12°C° 0 mm 5 mps 755 mmHg 72%
    06:00 +12°C° 0 mm 5 mps 756 mmHg 71%
    07:00 +12°C° 0 mm 4 mps 756 mmHg 71%
    08:00 +13°C° 0 mm 4 mps 756 mmHg 67%
    09:00 +14°C° 0 mm 3 mps 757 mmHg 63%
    10:00 +14°C° 0 mm 3 mps 757 mmHg 60%
    11:00 +14°C° 0 mm 3 mps 757 mmHg 57%
    12:00 +16°C° 0 mm 3 mps 757 mmHg 55%
    13:00 +16°C° 0 mm 3 mps 757 mmHg 52%
    14:00 +16°C° 0 mm 2 mps 757 mmHg 52%
    15:00 +16°C° 0 mm 2 mps 757 mmHg 52%
    16:00 +15°C° 0 mm 1 mps 757 mmHg 52%
    17:00 +15°C° 0 mm 1 mps 757 mmHg 53%
    18:00 +15°C° 0 mm 1 mps 757 mmHg 55%
    19:00 +13°C° 0 mm 0 mps 757 mmHg 56%
    20:00 +14°C° 0 mm 1 mps 758 mmHg 58%
    21:00 +14°C° 0 mm 1 mps 758 mmHg 59%
    22:00 +14°C° 0 mm 1 mps 758 mmHg 60%
    23:00 +14°C° 0 mm 2 mps 758 mmHg 60%
    Show more